Regional Weather Roundup
Issued by NWS

Home | Current Version | Previous Version | Graphics & Text | Print | Product List | Glossary On
Versions: 1 2 3 4 5 6 7 8 9 10 11 12 13 14 15 16 17 18 19 20 21 22 23 24 25 26 27 28 29 30 31 32 33 34 35 36 37 38 39 40 41 42 43 44 45 46 47 48 49 50
000
ASUS43 KBIS 111602
RWRND

NORTH DAKOTA REGIONAL WEATHER ROUNDUP
NATIONAL WEATHER SERVICE BISMARCK ND
1000 AM CST THU FEB 11 2016

NOTE: "FAIR" INDICATES FEW OR NO CLOUDS BELOW 12,000 FEET WITH NO
SIGNIFICANT WEATHER AND/OR OBSTRUCTIONS TO VISIBILITY.


NDZ001>003-009>011-017-111700-
NORTHWEST NORTH DAKOTA

CITY           SKY/WX    TMP DP  RH WIND       PRES   REMARKS
WILLISTON      LGT SNOW  23  18  81 NE7       30.11R VSB 3/4 WCI  15
MINOT          CLOUDY    16   7  67 NE3       30.14S
MINOT AFB      CLOUDY    13  10  88 E3        30.15R
$$

NDZ018>021-031>035-040>046-111700-
SOUTHWEST NORTH DAKOTA

CITY           SKY/WX    TMP DP  RH WIND       PRES   REMARKS
BISMARCK       LGT SNOW  21  15  78 E6        30.13R WCI  13
DICKINSON      LGT SNOW  22  20  92 E9        30.00R VSB 3/4 WCI  12
GARRISON         N/A     16  12  84 E6        30.11R WCI   7
HETTINGER ARPT LGT SNOW  30  28  92 SE6       30.01S FOG
$$

NDZ004>008-012>016-024-026-027-054-111700-
NORTHEAST NORTH DAKOTA

CITY           SKY/WX    TMP DP  RH WIND       PRES   REMARKS
GRAND FORKS    CLOUDY     9   1  70 S9        30.26S WCI  -4
GRND FRKS AFB  FLURRIES   9   1  72 S7        30.25S WCI  -3
DEVILS LAKE    LGT SNOW   9   5  84 CALM      30.19R FOG
$$

NDZ022-023-025-028>030-036>039-047>053-111700-
SOUTHEAST NORTH DAKOTA

CITY           SKY/WX    TMP DP  RH WIND       PRES   REMARKS
FARGO          CLOUDY     9  -1  64 CALM      30.26S
JAMESTOWN      CLOUDY     9   6  88 S6        30.16S FOG     WCI  -1
$$




USA.gov is the U.S. government's official web portal to all federal, state and local government web resources and services.